Madrid, Spain

3:23 AM CEST on April 25, 2017 (GMT +0200)
Madrid-Barajas Airport

Weather History for LEMD - August, 2014

Change the Weather History Date:

Tuesday, August 12, 2014

  Actual Average Record
Temperature  
Mean Temperature 80 °F -  
Max Temperature 95 °F 84 °F 99 °F (2013)
Min Temperature 65 °F 58 °F 55 °F (2002)
Cooling Degree Days 15    
Growing Degree Days 30 (Base 50)    
Moisture  
Dew Point 50 °F    
Average Humidity 32    
Maximum Humidity 56    
Minimum Humidity 10    
Precipitation  
Precipitation 0.00 in 0.02 in - ()
Sea Level Pressure  
Sea Level Pressure 29.94 in    
Wind  
Wind Speed 6 mph ()    
Max Wind Speed 18 mph    
Max Gust Speed 30 mph    
Visibility 18.7 miles    
Events      
Averages and records for this station are not official NWS values.
T = Trace of Precipitation, MM = Missing Value Source: Averaged Metar Reports

Daily Weather History Graph

Daily Weather History Graph

Search for Another Location

Airport or City:

Trip Planner

Search our weather history database for the weather conditions in past years. The results will help you decide how hot, cold, wet, or windy it might be!

Date:

Astronomy

Aug. 12, 2014 Rise Set
Actual Time 7:21 AM CEST 9:15 PM CEST
Civil Twilight 6:52 AM CEST 9:45 PM CEST
Nautical Twilight 6:16 AM CEST 10:21 PM CEST
Astronomical Twilight 5:37 AM CEST 10:59 PM CEST
Moon 10:13 PM CEST (8/12) 9:22 AM CEST (8/12)
Length of Visible Light 14h 53m
Length of Day
13h 54m
Waning Gibbous, 96% of the Moon is Illuminated
Aug 12
Waning Gibbous
Aug 17
Last Quarter
Aug 25
New
Sep 2
First Quarter
Sep 9
Full

Hourly Weather History & Observations

Time (CEST) Temp. Heat Index Dew Point Humidity Pressure Visibility Wind Dir Wind Speed Gust Speed Precip Events Conditions
12:00 AM 83 °F - 52 °F 24% 29.88 in 19 mi WSW 9.2 mph - -  
12:00 AM 84.2 °F 82.8 °F 53.6 °F 35% 30.01 in - WSW 9.2 mph - N/A   Clear
12:30 AM 84.2 °F - 50.0 °F 30% 30.01 in - West 8.1 mph - N/A   Clear
1:00 AM 80 °F - 50 °F 24% 29.90 in 19 mi North 6.9 mph - -  
1:00 AM 80.6 °F - 50.0 °F 34% 30.01 in - North 5.8 mph - N/A   Clear
1:30 AM 77.0 °F - 51.8 °F 41% 30.01 in - NNE 4.6 mph - N/A   Clear
2:00 AM 76 °F - 52 °F 33% 29.91 in 19 mi NNW 5.8 mph - -  
2:00 AM 75.2 °F - 51.8 °F 44% 30.01 in - North 4.6 mph - N/A   Clear
2:30 AM 75.2 °F - 51.8 °F 44% 30.01 in - North 4.6 mph - N/A   Clear
3:00 AM 73 °F - 51 °F 35% 29.92 in 19 mi NNE 1.2 mph - -  
3:00 AM 73.4 °F - 51.8 °F 47% 30.01 in - North 2.3 mph - N/A   Clear
3:30 AM 73.4 °F - 51.8 °F 47% 30.01 in - Variable 2.3 mph - N/A   Clear
4:00 AM 71 °F - 50 °F 37% 29.93 in 19 mi Calm Calm - -  
4:00 AM 71.6 °F - 50.0 °F 46% 30.01 in - Calm Calm - N/A   Clear
4:30 AM 71.6 °F - 50.0 °F 46% 30.01 in - Calm Calm - N/A   Clear
5:00 AM 69 °F - 50 °F 40% 29.94 in 19 mi Calm Calm - -  
5:00 AM 69.8 °F - 50.0 °F 49% 30.01 in - Calm Calm - N/A   Clear
6:00 AM 68 °F - 52 °F 47% 29.94 in 19 mi East 4.6 mph - -  
6:30 AM 68.0 °F - 51.8 °F 56% 30.01 in - ESE 3.5 mph - N/A   Clear
7:00 AM 67 °F - 52 °F 48% 29.96 in 19 mi ENE 2.3 mph - -  
7:00 AM 68.0 °F - 51.8 °F 56% 30.01 in - Variable 2.3 mph - N/A   Clear
7:30 AM 66.2 °F - 50.0 °F 56% 30.01 in - North 3.5 mph - N/A   Clear
8:00 AM 67 °F - 50 °F 43% 29.97 in 19 mi NNW 3.5 mph - -  
8:00 AM 68.0 °F - 48.2 °F 49% 30.01 in - North 3.5 mph - N/A   Clear
8:30 AM 71.6 °F - 51.8 °F 50% 30.01 in - Variable 2.3 mph - N/A   Clear
9:00 AM 73 °F - 51 °F 36% 29.95 in 19 mi Calm Calm - -  
9:00 AM 73.4 °F - 51.8 °F 47% 30.04 in - Calm Calm - N/A   Clear
9:30 AM 75.2 °F - 53.6 °F 47% 30.04 in - Variable 1.2 mph - N/A   Clear
10:00 AM 77 °F - 53 °F 32% 29.94 in 19 mi South 2.3 mph - -  
10:00 AM 75.2 °F - 53.6 °F 47% 30.04 in - SE 2.3 mph - N/A   Clear
10:30 AM 77.0 °F - 53.6 °F 44% 30.04 in - NNW 2.3 mph - N/A   Clear
11:00 AM 81 °F - 52 °F 26% 29.91 in 19 mi SSE 3.5 mph - -  
11:00 AM 78.8 °F - 53.6 °F 42% 30.04 in - South 2.3 mph 16.1 mph N/A   Clear
11:30 AM 80.6 °F 80.3 °F 53.6 °F 39% 30.04 in - SSE 2.3 mph - N/A   Clear
12:00 PM 84 °F - 49 °F 20% 29.90 in 19 mi South 5.8 mph - -  
12:00 PM 82.4 °F - 51.8 °F 35% 30.04 in - SSE 4.6 mph - N/A   Clear
12:30 PM 84.2 °F - 48.2 °F 29% 30.01 in - SE 4.6 mph - N/A   Clear
1:00 PM 88 °F - 48 °F 16% 29.88 in 19 mi SSW 3.5 mph - -  
1:30 PM 87.8 °F - 48.2 °F 25% 30.01 in - West 3.5 mph - N/A   Clear
2:00 PM 90 °F - 47 °F 14% 29.84 in 19 mi SW 10.4 mph - -  
2:00 PM 87.8 °F - 48.2 °F 25% 29.98 in - SW 10.4 mph - N/A   Clear
2:30 PM 89.6 °F - 48.2 °F 24% 29.98 in - SW 11.5 mph - N/A   Clear
3:00 PM 92 °F - 45 °F 12% 29.81 in 12 mi SSW 10.4 mph - -  
3:00 PM 89.6 °F - 46.4 °F 22% 29.98 in - SSW 10.4 mph - N/A   Clear
3:30 PM 91.4 °F - 46.4 °F 21% 29.95 in - South 10.4 mph - N/A   Clear
4:00 PM 94 °F - 46 °F 11% 29.79 in 19 mi SW 16.1 mph - -   Scattered Clouds
4:00 PM 93.2 °F - 46.4 °F 20% 29.95 in - SW 12.7 mph 24.2 mph N/A   Clear
4:30 PM 93.2 °F - 46.4 °F 20% 29.95 in - SW 15.0 mph 29.9 mph N/A   Clear
5:00 PM 94 °F - 45 °F 11% 29.76 in 19 mi SSW 11.5 mph - -   Scattered Clouds
5:00 PM 93.2 °F - 46.4 °F 20% 29.92 in - South 12.7 mph - N/A   Clear
5:30 PM 93.2 °F - 46.4 °F 20% 29.92 in - SW 10.4 mph - N/A   Clear
6:00 PM 94 °F - 45 °F 10% 29.75 in 19 mi SW 9.2 mph - -   Scattered Clouds
7:00 PM 92 °F - 49 °F 14% 29.75 in 19 mi West 11.5 mph - -   Mostly Cloudy
7:30 PM 91.4 °F - 50.0 °F 24% 29.89 in - WNW 12.7 mph - N/A   Clear
8:00 PM 89 °F - 49 °F 16% 29.76 in 19 mi WNW 18.4 mph - -   Scattered Clouds
8:00 PM 89.6 °F - 50.0 °F 26% 29.92 in - WNW 17.3 mph - N/A   Clear
8:30 PM 89.6 °F - 50.0 °F 26% 29.89 in - WNW 15.0 mph - N/A   Clear
9:00 PM 87 °F - 49 °F 17% 29.77 in 19 mi WNW 15.0 mph - -   Scattered Clouds
9:30 PM 86.0 °F - 51.8 °F 31% 29.92 in - NW 13.8 mph - N/A   Clear
10:00 PM 84 °F - 48 °F 19% 29.79 in 19 mi WNW 15.0 mph - -   Scattered Clouds
10:00 PM 84.2 °F - 50.0 °F 30% 29.92 in - WNW 15.0 mph - N/A   Clear
11:00 PM 82 °F - 50 °F 22% 29.83 in 19 mi WNW 9.2 mph - -   Clear
11:00 PM 82.4 °F - 51.8 °F 35% 29.95 in - WNW 9.2 mph - N/A   Clear